Location: Albuquerque Trailhead
(34.7934°N, 106.3736°W)
Time: 14:56:28
(UTC+00:00)

Chandra Rocket (1) - Pass Details

Date: 20 June 2021
Orbit: 357 x 10987 km, 28.4° (Epoch: 26 July)

Event Time Altitude Azimuth Distance (km) Brightness Sun altitude
Exits shadow 10:20:22 20° 229° (SW) 3,225 5.0 -15.9°
Maximum altitude 10:25:30 35° 179° (S) 1,550 3.7 -15.2°
Drops below altitude 10° 10:29:24 10° 111° (ESE) 1,963 5.0 -14.6°
Sets 10:31:02 0° 100° (E) 2,572 5.8 -14.3°
